Location: Hillsboro
(38.3483°N, 97.1938°W)
Time: 20:52:28
(UTC-06:00)

Daily predictions for brighter satellites

Satellite Brightness Start Highest point End
(mag) Time Altitude Azimuth Time Altitude Azimuth Time Altitude Azimuth
Cosmos 1048 Rocket 4.5 17:29:07 10° NNW 17:34:26 71° WSW 17:39:45 10° S
Cosmos 1544 Rocket 4.0 17:33:16 10° N 17:37:30 40° E 17:41:43 10° SSE
COSMO-SKYMED 1 4.0 17:36:19 10° NE 17:39:22 19° E 17:42:25 10° SE
Cosmos 1975 Rocket 3.2 17:35:17 10° S 17:39:36 79° W 17:43:56 10° N
USA 116 4.5 17:40:13 10° NNE 17:45:38 73° ESE 17:50:46 10° S
PAYLOAD A 4.0 17:45:21 10° S 17:50:07 81° WSW 17:55:06 10° NNW
Tiangong 1 2.4 17:52:22 10° SSW 17:55:00 27° SSE 17:57:12 13° E
Cosmos 1536 Rocket 3.9 17:51:57 10° SSE 17:56:12 46° E 18:00:30 10° NNE
SJ-7 4.5 17:53:26 10° SSE 17:57:37 66° ENE 18:01:50 10° N
Okean 1 3.6 17:58:02 10° SSE 18:01:53 45° E 18:05:47 10° NNE
BREEZE-M DEB (TANK) 3.8 18:01:12 10° WNW 18:02:41 16° NNW 18:04:10 10° NNE
YAOGAN 1 2.5 17:59:58 10° SSE 18:04:18 84° ENE 18:08:39 10° N
SPOT 3 Rocket 3.6 17:59:28 10° SSE 18:04:41 88° W 18:09:53 10° NNW
Cosmos 1812 2.6 18:01:52 10° S 18:05:42 75° E 18:09:33 10° N
CZ-4 R/B 4.4 18:04:06 10° SSE 18:08:12 68° ENE 18:12:20 10° N
Meteor 1-18 Rocket 4.2 18:04:05 10° S 18:09:41 81° E 18:15:27 10° N
CZ-3A R/B 4.1 18:05:13 10° W 18:10:05 45° NNW 18:30:39 12° NE
USA 234 4.0 18:04:28 10° NE 18:10:40 47° NW 18:16:52 10° WSW
COSMOS 2487 3.7 18:08:23 10° NNE 18:11:14 22° ENE 18:12:59 16° ESE
Cosmos 1844 Rocket 3.6 18:06:49 10° SW 18:12:10 47° WNW 18:17:36 10° N
ISS -1.1 18:10:18 10° WNW 18:12:42 18° NNW 18:14:53 11° NNE
Cosmos 921 Rocket 4.2 18:09:57 10° SSE 18:13:15 23° E 18:14:35 19° ENE
Cosmos 1346 Rocket 3.0 18:14:00 10° SSE 18:17:44 44° E 18:20:56 13° NNE
BREEZE M DEB (TANK) 4.2 18:15:06 10° NW 18:18:16 27° NNE 18:21:53 18° ENE
ASTRO F (AKARI) 4.4 18:18:38 10° N 18:21:45 72° WNW 18:24:53 10° SSW
IDEFIX/ARIANE 42P 3.2 18:20:17 10° S 18:25:24 59° W 18:30:32 10° NNW
NOSS 3-3 (A) 4.0 18:19:17 10° SSW 18:25:27 88° WNW 18:31:29 13° NNE
NOSS 3-3 (C) 4.0 18:19:24 10° SSW 18:25:33 88° WNW 18:31:34 13° NNE
Cosmos 1455 Rocket 3.4 18:22:33 10° NNW 18:26:57 70° W 18:31:21 10° S
SKYMED 2 3.5 18:23:21 10° NNE 18:27:40 65° E 18:31:58 10° S
Cosmos 494 Rocket 4.1 18:22:57 10° NNW 18:28:12 82° WSW 18:33:28 10° SSE
Okean 1-7 Rocket 4.1 18:25:41 10° SSE 18:29:52 38° E 18:32:13 22° NE
Cosmos 2297 3.9 18:25:55 10° S 18:31:20 51° ESE 18:35:04 20° NE
ATLAS 2AS CENTAUR R/B 3.2 18:27:54 10° NW 18:35:56 74° WSW 18:43:20 10° SSE
Delta 2 Rocket 4.2 18:32:54 10° SW 18:36:29 37° SSE 18:38:03 27° ESE
Cosmos 2366 rocket 4.5 18:30:27 10° NNW 18:36:44 65° W 18:42:56 10° S
CZ-4 R/B 3.9 18:34:18 10° SSW 18:37:49 26° W 18:41:19 10° NW
OTV 4 3.3 18:38:22 10° WSW 18:40:15 15° SSW 18:42:08 10° SSE
MSX 4.2 18:34:34 10° S 18:40:17 68° WSW 18:46:01 10° NNW
Cosmos 2278 Rocket 2.8 18:40:01 10° SW 18:45:33 56° WNW 18:51:08 10° NNE
Cosmos 1934 Rocket 4.4 18:40:31 10° N 18:46:10 36° ENE 18:51:52 10° SE
Cosmos 1809 Rocket 4.4 18:41:32 10° N 18:47:43 86° E 18:53:49 10° S
Cosmos 1975 3.4 18:43:58 10° NNW 18:47:58 58° W 18:51:55 10° S
CZ-2C R/B 4.3 18:43:51 10° SSW 18:48:15 32° W 18:52:49 10° NNW
Meteor 1-19 Rocket 4.2 18:50:12 10° S 18:55:55 69° E 19:00:54 14° NNE
Timation 2 Rocket 4.1 18:49:39 10° NNW 18:56:27 66° ENE 19:03:18 10° SE
Genesis I 3.0 18:54:15 10° NNW 18:58:11 77° ENE 18:58:26 73° E
Cosmos 2239 Rocket 4.4 18:55:51 10° N 19:02:01 64° E 19:08:06 10° SSE
Cosmos 1484 Rocket 4.0 18:59:50 10° S 19:03:24 40° W 19:06:56 10° NNW
NOAA 12 3.9 19:00:16 10° SSE 19:05:32 76° ENE 19:10:49 10° N
Cosmos 1743 4.3 19:10:05 26° S 19:10:05 26° S 19:11:50 10° S
Cosmos 1821 Rocket 3.8 19:05:32 10° N 19:11:38 73° E 19:17:42 10° SSE
Cosmos 2082 Rocket 2.0 19:06:56 10° NNW 19:12:38 75° ENE 19:15:50 27° SSE
Meteor 2-8 Rocket 4.4 19:07:16 10° S 19:13:09 57° E 19:14:09 51° ENE
METEOR-M 4.0 19:08:36 10° SSE 19:13:55 77° ENE 19:19:16 10° N
Cosmos 1833 Rocket 2.6 19:08:29 10° NNW 19:14:07 65° ENE 19:14:56 57° ESE
COSMO-SKYMED 1 4.1 19:11:39 10° N 19:15:35 34° WNW 19:19:31 10° SW
Meteor 1-28 Rocket 4.2 19:20:30 40° NW 19:21:09 45° WNW 19:24:46 10° SSW
NOSS 2-1 (D) 3.8 19:17:46 10° SW 19:20:55 57° WSW 19:20:55 57° WSW
NOSS 2-1 (C) 3.8 19:18:27 10° SW 19:21:34 56° WSW 19:21:34 56° WSW
Meteor 1-23 Rocket 4.1 19:19:28 10° S 19:25:12 77° E 19:25:43 71° NE
CZ-3B DEB 3.9 19:22:16 10° W 19:26:55 35° NNW 19:30:57 25° NNE
Tiangong 1 4.0 19:28:04 10° W 19:28:54 17° W 19:28:54 17° W
GEOS 3 Rocket 4.1 19:34:42 33° S 19:36:49 57° WSW 19:41:52 10° NW
Meteor 2-4 Rocket 3.8 19:34:34 10° SSW 19:39:56 67° W 19:40:40 59° NW
Cosmos 2056 Rocket 4.1 19:37:14 10° SSW 19:41:14 51° SSW 19:41:14 51° SSW
Cosmos 1025 Rocket 4.3 19:41:14 10° SSW 19:44:25 38° WSW 19:44:25 38° WSW
NOSS 3-4 (A) 4.3 20:04:33 10° NNW 20:09:29 50° NNW 20:09:29 50° NNW
NOSS 3-4 (C) 4.3 20:04:39 10° NNW 20:09:33 49° NNW 20:09:33 49° NNW
FALCON 9 R/B 3.2 20:01:16 10° W 20:15:38 64° SW 20:15:38 64° SW
ATLAS 3B CENTAUR R/B 4.4 20:45:56 10° W 20:53:30 28° SW 20:53:30 28° SW
